Time,TemperatureF,DewpointF,PressureIn,WindDirection,WindDirectionDegrees,WindSpeedMPH,WindSpeedGustMPH,Humidity,HourlyPrecipIn,Conditions,Clouds,dailyrainin,SoftwareType,DateUTC
2013-07-04 00:02:00,71.0,69.0,-100.00,NE,45,0.0,0.0,91,0.00,,,-99.99,,2013-07-04 04:02:00,
2013-07-04 00:43:00,71.0,68.0,-100.00,NE,40,0.0,0.0,91,0.00,,,-99.99,,2013-07-04 04:43:00,
2013-07-04 01:02:00,71.0,68.0,-100.00,ENE,65,0.0,0.0,92,0.00,,,-99.99,,2013-07-04 05:02:00,
2013-07-04 01:43:00,71.0,69.0,-100.00,NE,55,0.0,0.0,92,0.00,,,-99.99,,2013-07-04 05:43:00,
2013-07-04 02:01:00,71.0,68.0,-100.00,ENE,70,0.0,0.0,92,0.00,,,-99.99,,2013-07-04 06:01:00,
2013-07-04 02:22:00,71.0,68.0,-100.00,NE,35,0.0,0.0,92,0.00,,,-99.99,,2013-07-04 06:22:00,
2013-07-04 02:34:00,71.0,68.0,-100.00,ENE,75,0.0,0.0,92,0.00,,,-99.99,,2013-07-04 06:34:00,
2013-07-04 02:43:00,71.0,68.0,-100.00,NE,50,0.0,0.0,92,0.00,,,-99.99,,2013-07-04 06:43:00,
2013-07-04 02:52:00,71.0,68.0,-100.00,East,100,0.0,0.0,92,0.00,,,-99.99,,2013-07-04 06:52:00,
2013-07-04 03:02:00,71.0,68.0,-100.00,North,5,0.0,0.0,92,0.00,,,-99.99,,2013-07-04 07:02:00,
2013-07-04 03:12:00,71.0,68.0,-100.00,SE,130,0.0,0.0,92,0.00,,,-99.99,,2013-07-04 07:12:00,
2013-07-04 03:22:00,71.0,68.0,-100.00,ESE,110,0.0,0.0,92,0.00,,,-99.99,,2013-07-04 07:22:00,
2013-07-04 03:34:00,70.0,68.0,-100.00,SSE,150,0.0,0.0,92,0.00,,,-99.99,,2013-07-04 07:34:00,
2013-07-04 03:43:00,70.0,68.0,-100.00,NE,40,0.0,0.0,92,0.00,,,-99.99,,2013-07-04 07:43:00,
2013-07-04 04:02:00,70.0,68.0,-100.00,East,90,0.0,0.0,92,0.00,,,-99.99,,2013-07-04 08:02:00,
2013-07-04 04:11:00,70.0,68.0,-100.00,NNE,30,0.0,0.0,92,0.00,,,-99.99,,2013-07-04 08:11:00,
2013-07-04 04:33:00,70.0,68.0,-100.00,ESE,110,0.0,0.0,92,0.00,,,-99.99,,2013-07-04 08:33:00,
2013-07-04 04:42:00,70.0,68.0,-100.00,NE,45,0.0,0.0,92,0.00,,,-99.99,,2013-07-04 08:42:00,
2013-07-04 04:53:00,70.0,68.0,-100.00,NNE,25,0.0,0.0,92,0.00,,,-99.99,,2013-07-04 08:53:00,
2013-07-04 05:02:00,70.0,68.0,-100.00,NE,45,0.0,0.0,92,0.00,,,-99.99,,2013-07-04 09:02:00,
2013-07-04 05:22:00,70.0,68.0,-100.00,NE,55,0.0,1.0,92,0.00,,,-99.99,,2013-07-04 09:22:00,
2013-07-04 07:02:00,69.0,67.0,-100.00,SE,130,0.0,0.0,92,0.00,,,-99.99,,2013-07-04 11:02:00,
2013-07-04 07:22:00,70.0,67.0,-100.00,SE,130,0.0,0.0,92,0.00,,,-99.99,,2013-07-04 11:22:00,
2013-07-04 07:34:00,70.0,67.0,-100.00,East,80,0.0,1.0,92,0.00,,,-99.99,,2013-07-04 11:34:00,
2013-07-04 07:43:00,69.0,67.0,-100.00,ESE,105,1.0,3.0,92,0.00,,,-99.99,,2013-07-04 11:43:00,
2013-07-04 08:02:00,69.0,67.0,-100.00,ESE,115,1.0,6.0,92,0.00,,,-99.99,,2013-07-04 12:02:00,
2013-07-04 09:33:00,69.0,67.0,-100.00,SSE,150,0.0,1.0,91,0.00,,,-99.99,,2013-07-04 13:33:00,
2013-07-04 09:43:00,70.0,67.0,-100.00,ESE,110,0.0,2.0,91,0.00,,,-99.99,,2013-07-04 13:43:00,
2013-07-04 10:02:00,70.0,67.0,-100.00,SSE,155,0.0,1.0,89,0.00,,,-99.99,,2013-07-04 14:02:00,
2013-07-04 10:22:00,71.0,68.0,-100.00,SE,135,0.0,1.0,89,0.00,,,-99.99,,2013-07-04 14:22:00,
2013-07-04 10:33:00,71.0,67.0,-100.00,SSE,150,0.0,2.0,88,0.00,,,-99.99,,2013-07-04 14:33:00,
2013-07-04 10:43:00,71.0,67.0,-100.00,SE,125,0.0,2.0,87,0.00,,,-99.99,,2013-07-04 14:43:00,
2013-07-04 10:53:00,72.0,68.0,-100.00,SSE,165,1.0,4.0,87,0.00,,,-99.99,,2013-07-04 14:53:00,
2013-07-04 11:02:00,72.0,68.0,-100.00,ESE,105,1.0,2.0,86,0.00,,,-99.99,,2013-07-04 15:02:00,
2013-07-04 11:11:00,72.0,68.0,-100.00,SE,130,0.0,3.0,87,0.00,,,-99.99,,2013-07-04 15:11:00,
2013-07-04 11:23:00,72.0,68.0,-100.00,ENE,65,0.0,1.0,86,0.00,,,-99.99,,2013-07-04 15:23:00,
2013-07-04 11:33:00,72.0,68.0,-100.00,East,85,0.0,0.0,87,0.00,,,-99.99,,2013-07-04 15:33:00,
2013-07-04 11:43:00,73.0,69.0,-100.00,ENE,65,0.0,0.0,87,0.00,,,-99.99,,2013-07-04 15:43:00,
2013-07-04 11:52:00,73.0,69.0,-100.00,ESE,110,0.0,1.0,87,0.00,,,-99.99,,2013-07-04 15:52:00,
2013-07-04 12:02:00,73.0,69.0,-100.00,NE,35,0.0,1.0,86,0.00,,,-99.99,,2013-07-04 16:02:00,
2013-07-04 12:11:00,73.0,69.0,-100.00,ENE,75,0.0,1.0,86,0.00,,,-99.99,,2013-07-04 16:11:00,
2013-07-04 12:22:00,74.0,69.0,-100.00,ENE,65,0.0,1.0,84,0.00,,,-99.99,,2013-07-04 16:22:00,
2013-07-04 12:33:00,74.0,68.0,-100.00,East,95,0.0,2.0,83,0.00,,,-99.99,,2013-07-04 16:33:00,
2013-07-04 12:43:00,74.0,68.0,-100.00,ENE,75,0.0,3.0,81,0.00,,,-99.99,,2013-07-04 16:43:00,
2013-07-04 12:52:00,75.0,69.0,-100.00,ESE,110,0.0,3.0,81,0.00,,,-99.99,,2013-07-04 16:52:00,
2013-07-04 13:01:00,75.0,67.0,-100.00,East,80,0.0,3.0,76,0.00,,,-99.99,,2013-07-04 17:01:00,
2013-07-04 13:12:00,76.0,68.0,-100.00,NE,45,0.0,2.0,76,0.00,,,-99.99,,2013-07-04 17:12:00,
2013-07-04 13:22:00,76.0,68.0,-100.00,SSE,160,0.0,3.0,77,0.00,,,-99.99,,2013-07-04 17:22:00,
2013-07-04 13:34:00,76.0,68.0,-100.00,East,95,0.0,2.0,75,0.00,,,-99.99,,2013-07-04 17:34:00,
2013-07-04 13:43:00,77.0,69.0,-100.00,SSE,150,0.0,3.0,75,0.00,,,-99.99,,2013-07-04 17:43:00,
2013-07-04 13:53:00,77.0,68.0,-100.00,ENE,65,0.0,2.0,74,0.00,,,-99.99,,2013-07-04 17:53:00,
2013-07-04 14:01:00,77.0,69.0,-100.00,SE,125,0.0,2.0,74,0.00,,,-99.99,,2013-07-04 18:01:00,
2013-07-04 14:11:00,78.0,68.0,-100.00,NE,50,1.0,3.0,71,0.00,,,-99.99,,2013-07-04 18:11:00,
2013-07-04 14:22:00,78.0,68.0,-100.00,ENE,70,1.0,3.0,71,0.00,,,-99.99,,2013-07-04 18:22:00,
2013-07-04 14:33:00,78.0,69.0,-100.00,SE,135,1.0,4.0,74,0.00,,,-99.99,,2013-07-04 18:33:00,
2013-07-04 14:43:00,78.0,68.0,-100.00,ESE,115,1.0,4.0,73,0.00,,,-99.99,,2013-07-04 18:43:00,
2013-07-04 14:52:00,78.0,69.0,-100.00,ENE,75,0.0,2.0,72,0.00,,,-99.99,,2013-07-04 18:52:00,
2013-07-04 15:02:00,78.0,69.0,-100.00,East,90,0.0,3.0,73,0.00,,,-99.99,,2013-07-04 19:02:00,
2013-07-04 15:12:00,78.0,69.0,-100.00,SSE,155,1.0,2.0,73,0.00,,,-99.99,,2013-07-04 19:12:00,
2013-07-04 15:22:00,78.0,68.0,-100.00,SE,140,1.0,3.0,71,0.00,,,-99.99,,2013-07-04 19:22:00,
2013-07-04 15:33:00,79.0,70.0,-100.00,East,85,0.0,3.0,73,0.00,,,-99.99,,2013-07-04 19:33:00,
2013-07-04 15:43:00,80.0,69.0,-100.00,ENE,65,0.0,1.0,70,0.00,,,-99.99,,2013-07-04 19:43:00,
2013-07-04 15:53:00,80.0,69.0,-100.00,North,0,0.0,2.0,69,0.00,,,-99.99,,2013-07-04 19:53:00,
2013-07-04 16:02:00,80.0,69.0,-100.00,SW,235,0.0,3.0,69,0.00,,,-99.99,,2013-07-04 20:02:00,
2013-07-04 16:11:00,80.0,70.0,-100.00,SE,145,1.0,4.0,71,0.00,,,-99.99,,2013-07-04 20:11:00,
2013-07-04 16:22:00,79.0,68.0,-100.00,SSE,150,0.0,3.0,69,0.00,,,-99.99,,2013-07-04 20:22:00,
2013-07-04 16:34:00,80.0,69.0,-100.00,SSE,165,0.0,3.0,69,0.00,,,-99.99,,2013-07-04 20:34:00,
2013-07-04 16:42:00,80.0,68.0,-100.00,ENE,60,0.0,1.0,68,0.00,,,-99.99,,2013-07-04 20:42:00,
2013-07-04 16:53:00,79.0,69.0,-100.00,SSE,150,0.0,2.0,71,0.00,,,-99.99,,2013-07-04 20:53:00,
2013-07-04 17:01:00,80.0,69.0,-100.00,WNW,295,1.0,2.0,70,0.00,,,-99.99,,2013-07-04 21:01:00,
2013-07-04 17:11:00,80.0,69.0,-100.00,WNW,285,1.0,4.0,68,0.00,,,-99.99,,2013-07-04 21:11:00,
2013-07-04 17:22:00,79.0,69.0,-100.00,NNW,335,1.0,6.0,73,0.00,,,-99.99,,2013-07-04 21:22:00,
2013-07-04 17:32:00,78.0,70.0,-100.00,SW,225,0.0,1.0,75,0.00,,,-99.99,,2013-07-04 21:32:00,
2013-07-04 17:43:00,79.0,70.0,-100.00,WNW,290,0.0,3.0,73,0.00,,,-99.99,,2013-07-04 21:43:00,
2013-07-04 17:53:00,79.0,70.0,-100.00,WNW,290,0.0,3.0,73,0.00,,,-99.99,,2013-07-04 21:53:00,
2013-07-04 18:02:00,78.0,70.0,-100.00,SE,125,0.0,3.0,74,0.00,,,-99.99,,2013-07-04 22:02:00,
2013-07-04 18:12:00,78.0,71.0,-100.00,NNE,25,0.0,2.0,78,0.00,,,-99.99,,2013-07-04 22:12:00,
2013-07-04 18:22:00,78.0,70.0,-100.00,NE,55,0.0,1.0,78,0.00,,,-99.99,,2013-07-04 22:22:00,
2013-07-04 18:33:00,78.0,71.0,-100.00,ESE,115,0.0,2.0,79,0.00,,,-99.99,,2013-07-04 22:33:00,
2013-07-04 18:43:00,77.0,70.0,-100.00,ENE,75,0.0,4.0,80,0.00,,,-99.99,,2013-07-04 22:43:00,
2013-07-04 18:52:00,77.0,71.0,-100.00,NW,325,0.0,1.0,79,0.00,,,-99.99,,2013-07-04 22:52:00,
2013-07-04 19:01:00,77.0,71.0,-100.00,SE,130,0.0,1.0,81,0.55,,,-99.99,,2013-07-04 23:01:00,
2013-07-04 19:12:00,76.0,71.0,-100.00,East,95,0.0,0.0,85,0.00,,,-99.99,,2013-07-04 23:12:00,
2013-07-04 19:33:00,75.0,71.0,-100.00,ENE,65,1.0,6.0,88,0.55,,,-99.99,,2013-07-04 23:33:00,
2013-07-04 19:43:00,73.0,70.0,-100.00,North,10,0.0,10.0,90,2.83,,,-99.99,,2013-07-04 23:43:00,
2013-07-04 19:52:00,72.0,69.0,-100.00,ENE,75,0.0,5.0,91,3.39,,,-99.99,,2013-07-04 23:52:00,
2013-07-04 20:01:00,71.0,69.0,-100.00,NE,35,0.0,2.0,92,5.67,,,-99.99,,2013-07-05 00:01:00,
2013-07-04 20:32:00,71.0,69.0,-100.00,North,0,0.0,1.0,93,0.00,,,-99.99,,2013-07-05 00:32:00,
2013-07-04 20:43:00,71.0,69.0,-100.00,East,90,0.0,0.0,93,0.00,,,-99.99,,2013-07-05 00:43:00,
2013-07-04 20:52:00,71.0,69.0,-100.00,ENE,70,0.0,0.0,93,0.00,,,-99.99,,2013-07-05 00:52:00,
2013-07-04 21:01:00,71.0,69.0,-100.00,NE,50,0.0,1.0,93,0.00,,,-99.99,,2013-07-05 01:01:00,
2013-07-04 21:11:00,71.0,69.0,-100.00,SE,145,1.0,5.0,93,5.67,,,-99.99,,2013-07-05 01:11:00,
2013-07-04 21:22:00,71.0,69.0,-100.00,North,0,0.0,6.0,93,0.00,,,-99.99,,2013-07-05 01:22:00,
2013-07-04 21:32:00,71.0,69.0,-100.00,NW,315,0.0,1.0,93,0.00,,,-99.99,,2013-07-05 01:32:00,
2013-07-04 21:42:00,71.0,69.0,-100.00,ESE,105,0.0,1.0,93,0.00,,,-99.99,,2013-07-05 01:42:00,
2013-07-04 21:52:00,71.0,69.0,-100.00,SE,125,0.0,1.0,93,0.00,,,-99.99,,2013-07-05 01:52:00,
2013-07-04 22:02:00,71.0,69.0,-100.00,NNE,30,0.0,1.0,94,0.00,,,-99.99,,2013-07-05 02:02:00,
2013-07-04 22:11:00,71.0,69.0,-100.00,ENE,60,0.0,2.0,93,0.00,,,-99.99,,2013-07-05 02:11:00,
2013-07-04 22:22:00,71.0,69.0,-100.00,ENE,60,0.0,2.0,93,0.00,,,-99.99,,2013-07-05 02:22:00,
2013-07-04 22:32:00,71.0,69.0,-100.00,ENE,65,0.0,0.0,93,0.00,,,-99.99,,2013-07-05 02:32:00,
2013-07-04 22:42:00,70.0,69.0,-100.00,East,100,0.0,0.0,93,0.00,,,-99.99,,2013-07-05 02:42:00,
2013-07-04 22:52:00,71.0,69.0,-100.00,SE,130,0.0,4.0,93,0.00,,,-99.99,,2013-07-05 02:52:00,
2013-07-04 23:02:00,71.0,69.0,-100.00,ESE,115,0.0,4.0,93,0.00,,,-99.99,,2013-07-05 03:02:00,
2013-07-04 23:11:00,70.0,68.0,-100.00,NE,45,0.0,5.0,93,0.00,,,-99.99,,2013-07-05 03:11:00,
2013-07-04 23:22:00,71.0,69.0,-100.00,East,85,0.0,3.0,93,0.00,,,-99.99,,2013-07-05 03:22:00,
2013-07-04 23:32:00,71.0,69.0,-100.00,SE,145,0.0,2.0,93,0.00,,,-99.99,,2013-07-05 03:32:00,
2013-07-04 23:42:00,70.0,69.0,-100.00,ENE,65,1.0,3.0,93,0.00,,,-99.99,,2013-07-05 03:42:00,
2013-07-04 23:52:00,71.0,69.0,-100.00,SW,220,0.0,1.0,93,0.00,,,-99.99,,2013-07-05 03:52:00,